Temperature
19 18 18 18 18 18 19 19 18 18 18 18 18 18 18 18 18 18 18 18 18 18 18 18 18 18 18 18 18 18 18 18 18 18 18 18 18 18 17 17 17 17 17
19 18 18 18 18 18 18 18 18 18 18 18 18 18 18 18 18 18 18 18 18 18 18 18 18 18 18 18 18 18 18 18 18 18 18 17 17 17 17 17 17 17 17
19 18 18 18 18 18 18 18 18 18 18 18 18 18 18 18 18 18 18 18 18 18 18 18 18 18 18 18 18 18 18 18 18 18 17 17 17 17 17 17 17 17 17
19 18 18 18 18 19 18 18 18 18 18 18 18 18 18 18 18 18 18 18 18 18 18 18 18 18 18 18 18 18 18 18 18 17 17 17 16 17 17 17 17 17 17
18 18 18 18 18 18 18 18 18 18 18 18 18 18 18 18 18 18 18 18 18 18 18 18 18 18 18 18 18 18 18 18 17 17 17 16 16 17 17 17 17 17 17
18 18 18 18 18 18 18 18 18 18 18 18 18 18 18 18 18 18 18 18 18 18 18 18 18 18 18 18 18 18 18 17 17 17 16 16 17 17 17 17 17 17 17
19 18 18 19 19 18 18 18 18 18 18 18 18 18 18 18 18 18 18 18 18 18 18 18 18 18 18 18 18 18 18 17 17 17 16 17 17 17 17 17 17 17 17
19 19 18 19 19 19 18 18 18 18 18 18 18 18 18 18 18 18 18 18 18 18 18 18 18 18 18 18 18 18 17 17 17 17 17 17 17 17 17 17 17 17 17
19 19 18 18 18 19 18 18 18 18 18 18 18 18 18 18 18 18 18 18 18 18 18 18 17 18 18 18 17 17 17 17 17 17 17 16 17 17 17 17 17 17 17
19 19 18 18 18 18 18 18 18 18 18 18 18 18 18 18 18 18 18 18 18 18 18 18 17 18 18 18 18 17 17 17 18 17 17 17 17 17 17 17 17 17 17
19 19 19 19 18 18 18 18 18 18 18 18 18 18 18 17 17 17 17 18 18 18 18 18 18 18 18 18 18 18 17 17 18 17 17 17 17 17 17 17 17 17 17
19 19 19 18 18 18 18 18 18 18 18 18 17 17 17 17 17 17 18 18 18 18 18 18 18 18 17 17 17 17 17 17 18 17 17 17 17 17 17 17 17 17 17
19 19 19 18 18 18 18 18 18 18 18 18 17 17 18 17 17 17 17 17 18 18 17 17 17 17 17 17 17 17 17 18 18 18 17 18 17 17 17 17 17 17 17
19 19 19 19 18 18 18 18 18 18 18 18 18 18 18 18 18 18 17 17 17 17 17 17 17 17 17 17 17 17 17 18 18 18 18 18 17 17 17 17 17 17 17
20 19 19 19 19 19 18 18 18 18 18 18 18 18 17 18 18 18 17 17 18 18 17 17 17 17 17 17 17 17 17 17 17 17 17 18 18 17 17 17 17 17 17
20 20 19 19 19 19 19 18 18 18 18 18 18 18 18 18 18 18 18 17 18 18 18 17 17 17 17 17 17 17 17 18 17 17 17 17 18 18 18 17 17 17 17
20 19 19 19 19 19 19 18 18 18 18 18 18 18 18 18 18 18 18 18 18 18 17 17 17 17 17 18 17 17 17 17 17 17 17 17 17 17 18 18 17 17 17
20 20 19 19 19 19 19 19 18 18 18 18 18 18 18 18 18 18 18 18 18 18 18 18 18 18 18 18 18 18 18 17 17 17 17 17 17 17 17 17 17 17 17
20 20 20 19 19 19 19 19 18 18 18 18 18 18 18 18 18 18 18 18 18 18 18 18 18 18 18 18 18 18 18 18 18 18 18 17 17 17 17 17 17 17 17
20 20 20 20 20 19 19 19 18 18 18 18 18 18 18 18 18 18 18 18 18 18 18 18 18 18 18 18 18 18 18 18 18 18 18 18 18 18 18 17 17 17 17
21 21 20 20 20 20 19 19 18 18 18 18 18 18 18 18 18 18 18 18 18 18 18 18 18 18 18 18 18 18 18 18 18 18 18 18 18 18 18 17 17 17 17
21 21 21 21 20 20 19 19 19 19 18 18 18 18 18 18 18 18 18 18 18 18 18 17 17 18 18 18 18 18 18 19 19 19 18 18 18 18 18 18 17 17 17
21 21 21 21 20 20 19 19 19 19 18 18 18 18 18 18 18 18 18 18 18 17 17 17 17 17 18 18 18 18 18 19 19 19 18 18 18 18 18 18 17 17 17
22 22 22 21 21 20 20 19 19 18 18 18 18 18 18 18 18 18 18 18 18 17 17 17 17 17 17 17 17 17 17 18 18 19 19 18 18 17 17 17 18 17 17
22 22 21 21 21 21 20 20 19 19 18 18 18 18 18 18 18 18 18 18 18 17 17 17 17 17 17 17 17 17 17 17 17 18 18 18 18 17 17 17 17 17 17
22 22 21 21 21 21 20 20 19 19 19 18 18 18 18 18 18 18 18 18 18 17 17 17 17 17 17 17 17 17 17 17 17 17 17 17 17 17 17 17 17 17 17
Wind_Speed
8 11 12 11 13 13 14 15 15 16 16 16 16 16 16 16 15 15 15 16 16 16 16 16 17 17 17 17 17 17 18 18 18 18 17 17 17 17 16 16 15 17 17
11 13 12 11 12 13 14 14 15 15 16 16 15 15 15 15 15 15 15 15 15 16 16 16 17 17 17 17 17 17 17 17 17 17 17 17 16 16 14 12 13 16 16
11 13 12 11 12 13 13 13 14 14 15 15 15 15 14 14 14 14 15 15 15 15 16 16 16 17 16 17 17 16 16 16 15 14 13 15 16 14 14 14 16 16 16
11 12 12 12 12 12 12 13 13 13 14 14 14 14 14 14 14 14 14 14 14 15 15 15 16 16 15 15 15 15 15 14 12 9 10 12 14 15 14 15 15 15 15
11 12 13 11 11 11 12 12 12 13 12 13 13 13 13 13 13 13 13 14 14 14 14 15 15 15 14 14 14 14 13 12 8 6 11 11 13 14 14 14 14 14 14
11 12 13 10 11 11 11 11 12 12 12 12 12 12 12 12 12 12 13 13 13 13 13 14 13 13 13 13 13 12 11 8 7 9 9 10 12 13 13 13 13 13 12
11 11 13 10 10 10 10 10 11 11 11 11 11 11 11 11 11 12 12 12 12 12 12 12 12 12 11 11 11 11 8 3 5 8 8 10 12 13 12 11 11 12 11
10 11 13 11 10 9 9 9 10 10 10 10 10 10 10 10 10 11 11 11 11 11 11 11 11 11 11 10 9 8 5 2 6 8 8 10 12 11 11 11 10 10 10
9 9 10 11 11 9 8 8 9 9 9 9 10 10 9 9 9 9 9 9 9 9 9 10 10 10 9 9 8 7 3 3 3 6 7 9 12 10 10 10 9 9 9
8 8 7 8 8 9 10 8 7 8 8 8 8 8 8 8 8 8 8 8 8 8 8 8 8 8 8 7 7 6 4 5 3 6 6 10 12 9 9 9 9 9 9
7 6 6 7 6 6 7 9 8 8 7 7 8 6 5 5 7 8 9 8 6 7 7 7 7 7 7 8 6 5 6 3 4 4 5 12 10 9 8 8 8 9 9
8 7 6 5 5 4 5 6 4 5 6 4 5 4 4 4 3 5 9 6 5 5 6 6 6 7 7 7 9 8 4 3 3 4 7 11 9 9 8 8 8 9 8
8 7 6 5 5 4 4 4 3 3 4 4 4 3 3 2 3 3 4 6 5 5 4 7 7 4 3 2 2 3 2 2 2 3 7 10 8 8 9 9 9 9 9
7 7 6 6 5 3 2 3 3 3 3 3 4 2 3 2 1 1 1 2 3 3 1 2 2 2 1 2 2 2 3 3 2 2 6 9 8 8 9 9 10 10 9
7 7 6 5 4 4 3 2 2 2 1 2 2 2 2 2 2 1 1 1 2 2 3 2 2 2 3 3 4 4 3 3 2 3 5 9 9 9 10 11 11 11 11
8 7 7 7 6 5 4 3 2 2 2 1 2 2 3 2 2 2 3 3 3 2 2 2 2 3 3 3 3 3 4 4 3 4 4 8 11 11 12 12 12 12 13
8 8 7 7 7 6 5 4 3 3 3 2 2 3 4 4 3 4 3 3 3 3 3 4 4 4 4 4 4 4 5 5 5 5 5 5 8 13 14 14 13 13 14
8 8 8 7 7 7 5 4 4 3 3 3 3 3 4 4 4 5 4 4 4 5 4 3 4 4 4 4 4 4 5 5 6 7 7 7 7 7 12 16 15 15 15
8 8 8 7 6 6 6 5 5 4 4 4 4 4 4 4 5 5 4 4 5 4 4 5 4 4 4 5 5 5 6 6 6 7 7 8 8 8 8 12 17 16 16
9 9 8 8 7 6 5 5 4 4 4 5 4 4 5 5 5 5 5 4 5 4 4 5 5 5 5 5 7 6 6 7 7 7 8 8 8 9 9 8 10 13 17
9 9 9 9 8 7 5 5 5 4 4 4 4 4 5 6 5 5 4 4 4 4 5 6 6 7 6 5 5 6 7 8 8 7 7 7 7 7 7 7 8 7 9
10 10 10 10 9 8 6 5 4 4 4 3 3 3 5 5 5 5 4 5 5 4 6 6 6 5 5 4 4 5 5 5 6 7 6 6 6 5 6 7 6 6 7
11 11 10 10 8 8 7 5 4 4 4 4 3 3 4 5 5 5 5 5 5 6 5 6 6 6 6 4 5 5 4 4 3 4 4 4 4 4 5 4 5 6 7
11 10 10 9 8 8 7 7 7 5 5 4 3 3 4 4 5 5 5 5 6 6 6 7 6 6 6 6 5 6 7 5 4 3 3 3 3 3 4 4 4 4 4
10 9 9 8 8 8 7 7 7 6 5 3 3 3 4 3 4 4 5 5 5 5 5 6 5 5 5 6 5 4 5 6 7 5 4 3 2 3 2 3 3 3 3
9 9 9 8 8 8 8 7 7 6 5 4 3 3 3 3 3 4 4 4 4 4 4 5 4 5 4 5 5 4 5 4 5 5 5 5 3 2 2 2 2 3 3
Wind_Direction
105 99 95 90 89 89 89 89 90 92 94 94 95 95 96 96 94 93 96 98 95 96 96 96 98 98 99 101 101 101 103 105 105 105 104 105 107 109 111 118 120 108 109
111 105 99 94 93 91 91 91 92 92 94 94 95 95 95 95 95 94 96 98 96 96 97 98 98 98 100 101 101 102 104 105 106 108 110 108 107 108 109 103 95 108 114
115 112 110 96 96 94 93 93 93 93 94 94 94 94 94 95 95 96 97 97 97 98 99 99 100 100 101 102 103 103 103 106 110 118 128 115 110 109 108 103 103 112 114
114 112 105 102 99 97 96 96 96 95 94 95 95 94 94 95 95 95 96 98 99 98 98 100 101 102 103 105 105 104 105 107 118 143 121 110 112 111 111 111 113 114 115
110 109 105 105 101 99 97 96 97 96 96 96 95 94 94 94 95 95 95 97 98 98 98 101 102 104 105 106 107 107 109 114 134 134 102 106 108 114 116 116 116 117 118
121 116 109 106 102 99 97 96 98 97 97 95 94 93 93 93 95 96 95 96 98 99 100 101 104 106 106 109 111 111 114 135 161 109 110 114 114 121 121 120 121 121 121
121 116 114 108 105 101 97 96 98 97 96 95 94 93 93 93 95 96 96 97 98 100 102 104 107 109 108 109 112 114 116 147 115 105 110 107 112 124 126 125 124 125 125
124 119 117 115 107 104 102 99 99 98 97 98 97 97 97 96 96 97 98 99 100 103 105 108 110 112 112 111 115 119 133 209 121 109 109 106 113 130 131 130 131 132 132
127 124 129 132 127 121 108 102 102 101 100 100 99 100 101 100 100 102 101 100 101 104 107 110 114 113 115 115 117 122 135 274 120 117 118 116 127 136 139 139 141 142 140
134 128 130 127 128 137 129 116 109 107 107 105 102 105 115 121 121 123 122 108 105 106 109 114 119 119 120 122 127 135 174 228 140 126 122 122 135 146 149 151 152 152 150
142 139 138 133 133 131 126 129 138 133 131 142 130 133 162 141 128 135 99 108 112 113 116 121 128 134 143 145 147 169 207 196 125 116 114 121 145 157 161 162 164 162 161
158 156 147 143 135 138 126 131 140 140 135 136 114 127 124 97 94 103 113 122 126 132 139 141 152 176 201 166 166 194 196 164 138 133 124 136 159 171 173 174 176 177 176
164 164 158 153 155 156 140 147 134 130 135 143 129 138 115 131 140 138 141 149 157 172 169 158 186 192 179 156 175 183 175 180 154 144 133 151 174 186 186 187 188 189 191
170 171 169 161 163 166 168 156 168 163 156 148 145 187 151 149 159 140 173 157 167 161 168 193 182 174 198 196 208 209 204 216 173 144 136 161 187 197 197 198 198 198 200
176 183 178 177 174 183 188 217 182 182 185 159 165 175 220 203 204 191 250 273 241 188 186 210 226 196 208 209 214 213 226 223 217 211 160 172 196 206 206 207 209 208 207
184 189 187 190 184 191 193 204 221 218 211 247 221 220 243 243 234 232 228 248 254 246 251 246 229 228 229 227 227 226 234 228 218 229 215 184 196 207 212 214 216 217 216
188 192 195 196 191 197 207 215 219 233 228 241 263 257 262 260 248 248 248 243 254 250 240 245 249 246 238 230 227 232 235 238 237 234 238 229 205 203 209 216 221 221 221
190 190 198 203 194 199 211 226 239 249 251 252 257 261 264 272 262 260 256 253 257 255 252 244 246 253 251 247 240 241 240 231 235 235 233 231 235 224 206 210 221 224 224
196 195 197 203 206 214 213 219 242 252 258 265 265 268 270 268 266 263 267 264 257 252 251 257 237 253 256 258 252 238 242 240 238 237 238 239 234 235 231 202 211 222 228
199 199 202 203 208 215 219 216 235 249 255 260 267 266 267 266 265 268 264 263 262 257 251 251 257 251 258 262 268 265 253 245 239 235 238 237 235 234 235 232 220 220 220
202 201 204 208 203 207 215 220 224 235 250 256 258 261 265 267 263 260 275 271 266 262 263 255 252 248 247 252 263 261 250 240 237 239 239 244 238 237 239 239 242 242 219
202 204 206 210 208 208 212 224 228 241 247 246 264 272 271 269 267 257 259 268 265 262 261 260 252 260 254 236 249 263 258 238 225 231 228 230 243 243 240 237 237 240 251
204 205 206 207 208 210 211 212 213 218 240 242 248 259 269 270 270 273 272 270 274 269 264 262 256 255 259 252 238 250 265 258 252 219 219 229 235 249 256 253 243 245 245
200 199 201 201 204 204 205 214 219 231 240 246 251 262 261 261 267 265 264 266 267 269 272 266 257 256 254 255 242 241 257 282 273 252 221 216 226 247 268 272 262 246 248
195 192 192 193 197 200 205 209 220 234 242 248 248 257 264 263 268 270 270 271 270 271 274 277 275 260 255 257 254 250 250 251 250 260 264 266 250 250 253 266 280 287 277
187 186 185 184 191 195 200 210 219 228 236 251 255 264 264 266 273 279 277 277 275 276 272 267 265 258 262 261 260 254 251 252 251 248 256 264 267 269 273 287 282 283 289
Height
1542 1541 1539 1540 1540 1540 1540 1540 1540 1539 1540 1540 1540 1540 1540 1541 1541 1541 1541 1543 1543 1544 1545 1546 1546 1547 1548 1548 1549 1550 1551 1552 1553 1554 1555 1556 1557 1558 1559 1560 1561 1562 1562
1544 1543 1542 1542 1542 1543 1543 1543 1543 1543 1543 1543 1543 1544 1544 1544 1545 1545 1545 1545 1546 1547 1548 1549 1549 1550 1550 1551 1552 1553 1554 1555 1556 1557 1558 1558 1559 1560 1561 1562 1563 1564 1564
1545 1545 1544 1544 1545 1545 1546 1546 1546 1546 1546 1546 1547 1547 1547 1548 1548 1548 1549 1549 1550 1550 1551 1552 1552 1553 1553 1554 1555 1556 1557 1558 1559 1560 1561 1563 1562 1563 1564 1565 1565 1566 1567
1547 1548 1547 1547 1547 1548 1548 1548 1549 1549 1549 1549 1550 1550 1550 1551 1551 1552 1552 1552 1553 1553 1554 1554 1555 1556 1556 1557 1558 1559 1559 1560 1561 1563 1565 1566 1566 1565 1566 1567 1568 1568 1569
1549 1549 1548 1549 1550 1550 1551 1551 1551 1552 1552 1552 1553 1553 1553 1554 1554 1554 1555 1555 1556 1556 1557 1557 1557 1558 1559 1560 1560 1561 1562 1563 1564 1566 1567 1568 1568 1567 1568 1569 1570 1571 1571
1551 1552 1550 1551 1552 1553 1553 1554 1554 1554 1555 1555 1555 1556 1556 1556 1557 1557 1557 1558 1558 1559 1559 1560 1560 1561 1561 1562 1563 1563 1564 1565 1567 1569 1569 1570 1569 1569 1570 1571 1572 1573 1573
1553 1554 1553 1553 1554 1555 1555 1556 1556 1557 1557 1557 1558 1558 1558 1559 1559 1559 1560 1560 1561 1561 1562 1562 1563 1563 1564 1564 1565 1566 1566 1567 1571 1571 1571 1572 1571 1571 1572 1572 1573 1574 1575
1555 1556 1555 1555 1556 1557 1557 1558 1558 1559 1559 1559 1560 1560 1560 1561 1561 1562 1562 1562 1563 1563 1564 1564 1565 1565 1566 1567 1567 1568 1568 1569 1572 1573 1573 1573 1572 1573 1573 1574 1575 1576 1577
1557 1558 1558 1559 1558 1559 1559 1560 1560 1561 1561 1561 1562 1562 1562 1563 1563 1564 1564 1564 1565 1565 1566 1566 1567 1567 1568 1568 1569 1570 1570 1571 1574 1575 1575 1574 1573 1574 1575 1575 1576 1577 1578
1558 1559 1560 1561 1561 1562 1562 1561 1562 1562 1563 1563 1563 1564 1564 1565 1565 1565 1566 1566 1567 1567 1567 1568 1569 1569 1569 1570 1571 1571 1572 1573 1576 1576 1576 1575 1575 1575 1576 1576 1577 1578 1579
1559 1560 1562 1563 1563 1564 1565 1563 1564 1564 1564 1565 1565 1565 1566 1568 1568 1568 1568 1568 1568 1568 1569 1569 1570 1571 1571 1571 1572 1572 1573 1575 1576 1577 1576 1575 1575 1576 1576 1577 1578 1579 1579
1560 1561 1562 1563 1564 1565 1566 1565 1567 1567 1566 1567 1567 1568 1568 1568 1569 1570 1568 1569 1569 1570 1570 1570 1571 1572 1573 1574 1574 1574 1576 1576 1577 1577 1576 1575 1576 1576 1576 1577 1578 1579 1579
1560 1562 1563 1564 1564 1566 1566 1567 1568 1568 1568 1568 1568 1568 1569 1569 1570 1571 1571 1570 1570 1571 1572 1572 1572 1574 1575 1575 1575 1576 1576 1577 1577 1577 1576 1575 1576 1576 1576 1577 1578 1578 1579
1561 1562 1563 1564 1565 1565 1567 1568 1568 1569 1569 1570 1569 1570 1570 1571 1571 1571 1571 1572 1572 1572 1572 1573 1573 1574 1574 1574 1575 1575 1576 1577 1577 1577 1576 1575 1575 1576 1576 1576 1577 1578 1579
1561 1562 1563 1564 1564 1565 1566 1567 1569 1569 1570 1570 1570 1570 1570 1571 1571 1571 1571 1571 1572 1572 1572 1572 1573 1573 1573 1574 1574 1575 1575 1576 1576 1576 1576 1575 1575 1575 1575 1576 1576 1577 1578
1561 1562 1564 1564 1565 1565 1566 1567 1568 1569 1569 1570 1570 1570 1570 1571 1571 1571 1570 1570 1571 1571 1572 1572 1572 1572 1573 1573 1574 1574 1574 1575 1574 1575 1575 1574 1574 1574 1574 1575 1575 1576 1577
1561 1562 1563 1564 1565 1566 1567 1567 1569 1569 1570 1570 1570 1569 1569 1570 1570 1570 1570 1570 1570 1571 1570 1571 1571 1572 1572 1572 1572 1573 1573 1573 1573 1573 1574 1574 1574 1573 1573 1573 1574 1574 1575
1560 1561 1562 1565 1565 1566 1566 1567 1568 1569 1569 1569 1569 1569 1569 1569 1568 1568 1569 1569 1569 1569 1569 1569 1570 1570 1570 1571 1571 1571 1571 1571 1571 1571 1572 1572 1572 1573 1572 1571 1572 1572 1573
1559 1560 1561 1563 1564 1565 1566 1566 1567 1567 1567 1568 1568 1568 1568 1567 1567 1567 1567 1567 1567 1568 1567 1568 1568 1568 1568 1568 1569 1569 1569 1569 1569 1569 1570 1570 1570 1570 1570 1570 1569 1570 1570
1557 1558 1560 1561 1562 1563 1564 1565 1565 1566 1566 1566 1566 1566 1566 1566 1566 1565 1565 1565 1565 1565 1565 1565 1565 1565 1565 1566 1566 1566 1566 1566 1567 1567 1567 1568 1568 1568 1568 1568 1568 1567 1567
1555 1556 1557 1559 1560 1561 1562 1563 1564 1564 1564 1565 1565 1564 1564 1564 1564 1563 1563 1563 1563 1562 1562 1562 1562 1563 1563 1563 1563 1563 1563 1563 1564 1564 1564 1565 1565 1566 1565 1565 1565 1566 1565
1553 1554 1555 1557 1558 1559 1560 1560 1561 1562 1563 1563 1563 1562 1562 1562 1561 1561 1560 1560 1560 1559 1559 1559 1559 1559 1560 1560 1561 1560 1560 1561 1560 1561 1561 1561 1562 1562 1562 1562 1562 1561 1562
1550 1551 1553 1554 1556 1557 1558 1558 1559 1560 1560 1560 1560 1560 1560 1559 1559 1558 1558 1557 1557 1556 1556 1556 1556 1556 1556 1557 1557 1558 1558 1557 1557 1558 1557 1558 1558 1559 1559 1559 1559 1558 1558
1548 1549 1551 1552 1554 1555 1556 1557 1558 1558 1559 1559 1558 1558 1557 1556 1556 1555 1555 1554 1554 1554 1553 1553 1553 1553 1553 1553 1553 1554 1555 1555 1556 1555 1555 1555 1555 1555 1555 1556 1556 1555 1555
1546 1547 1549 1550 1552 1553 1554 1554 1555 1556 1557 1557 1556 1556 1555 1555 1554 1553 1552 1552 1551 1551 1550 1549 1549 1549 1549 1549 1550 1551 1551 1552 1552 1553 1552 1552 1552 1552 1552 1552 1552 1552 1552
1543 1545 1547 1548 1549 1550 1551 1552 1553 1554 1554 1554 1554 1554 1554 1553 1552 1551 1551 1550 1549 1548 1547 1546 1546 1546 1546 1546 1546 1547 1548 1548 1549 1549 1549 1549 1549 1549 1549 1549 1549 1549 1549